N0ZMJ-3 Weather Reports


Display with metric or nautical units.
time (UTC)temp
F
wind
direction
speed
MPH
gust
MPH
rain 1hr
in
rain 24hr
in
rain mn
in
humidity
%
barometer
mb
20260905112759 71 235 0.0 6.0 0.12 0.25 0.25 100 1015.7
20260905112427 71 244 2.0 6.0 0.09 0.22 0.22 100 1015.7
20260905112101 71 244 2.0 6.0 0.09 0.22 0.22 100 1015.7
20260905111429 72 171 1.0 4.0 0.04 0.17 0.17 100 1015.7
20260905111402 72 171 1.0 4.0 0.04 0.17 0.17 100 1015.7
20260905110429 72 228 3.0 7.0 0.13 0.13 0.13 100 1015.7
20260905110004 73 168 1.0 7.0 0.10 0.10 0.10 100 1015.4
20260905105428 73 207 2.0 11.0 0.09 0.09 0.09 100 1015.2
20260905105306 73 207 2.0 11.0 0.09 0.09 0.09 100 1015.2
20260905104603 73 228 4.0 11.0 0.08 0.08 0.08 100 1014.8
20260905104427 73 195 2.0 10.0 0.07 0.07 0.07 100 1014.5
20260905103858 73 204 4.0 17.0 0.06 0.06 0.06 100 1014.3
20260905103427 73 223 6.0 17.0 0.06 0.06 0.06 100 1014.0
20260905102503 72 204 2.0 5.0 0.02 0.02 0.02 100 1013.8
20260905102429 72 204 2.0 5.0 0.02 0.02 0.02 100 1013.8
20260905101801 72 183 1.0 4.0 0.00 0.00 0.00 100 1013.7
20260905101429 72 132 1.0 4.0 0.00 0.00 0.00 100 1013.7
20260905101100 72 132 1.0 4.0 0.00 0.00 0.00 100 1013.7
20260905100428 72 99 2.0 6.0 0.00 0.00 0.00 100 1013.8
20260905100400 72 99 2.0 6.0 0.00 0.00 0.00 100 1013.8
20260905095706 72 99 1.0 8.0 0.00 0.00 0.00 100 1013.5
20260905095428 72 100 3.0 8.0 0.00 0.00 0.00 100 1013.2
20260905095001 73 97 4.0 6.0 0.00 0.00 0.00 100 1012.7
20260905094428 73 170 1.0 8.0 0.00 0.00 0.00 100 1012.1
20260905094302 73 170 1.0 8.0 0.00 0.00 0.00 100 1012.1
20260905093559 73 107 3.0 8.0 0.00 0.00 0.00 100 1011.8
20260905093428 73 110 3.0 8.0 0.00 0.00 0.00 100 1011.8
20260905092859 73 146 2.0 7.0 0.00 0.00 0.00 100 1012.4
20260905092428 73 100 4.0 9.0 0.00 0.00 0.00 100 1012.8
20260905092159 73 100 4.0 9.0 0.00 0.00 0.00 100 1012.8
20260905091500 73 104 4.0 7.0 0.00 0.00 0.00 100 1012.8
20260905091427 73 104 4.0 7.0 0.00 0.00 0.00 100 1012.8
20260905090801 73 106 3.0 7.0 0.00 0.00 0.00 100 1013.0
20260905090427 73 89 4.0 7.0 0.00 0.00 0.00 100 1013.0
20260905085428 74 104 4.0 6.0 0.00 0.00 0.00 100 1012.9
20260905085401 74 104 4.0 6.0 0.00 0.00 0.00 100 1012.9
20260905084703 74 103 4.0 6.0 0.00 0.00 0.00 100 1012.9
20260905084428 74 103 1.0 4.0 0.00 0.00 0.00 100 1013.1
20260905084003 73 103 3.0 4.0 0.00 0.00 0.00 100 1013.2
20260905083428 73 103 2.0 6.0 0.00 0.00 0.00 100 1013.3
20260905083302 73 103 2.0 6.0 0.00 0.00 0.00 100 1013.3
20260905082600 73 103 2.0 6.0 0.00 0.00 0.00 100 1012.8
20260905082428 73 103 2.0 5.0 0.00 0.00 0.00 100 1012.8
20260905081859 73 104 0.0 1.0 0.00 0.00 0.00 100 1012.8
20260905081427 73 103 0.0 3.0 0.00 0.00 0.00 100 1012.9
20260905081159 73 103 0.0 3.0 0.00 0.00 0.00 100 1012.9
20260905080503 73 103 2.0 7.0 0.00 0.00 0.00 100 1012.5
20260905080427 73 103 2.0 7.0 0.00 0.00 0.00 100 1012.5
20260905075800 73 96 4.0 9.0 0.00 0.00 0.00 100 1012.2
20260905075428 73 96 5.0 9.0 0.00 0.00 0.00 100 1012.2
20260905075100 73 96 5.0 9.0 0.00 0.00 0.00 100 1012.2
20260905074428 73 92 4.0 8.0 0.00 0.00 0.00 100 1012.7
20260905074401 73 92 4.0 8.0 0.00 0.00 0.00 100 1012.7
20260905073659 72 74 3.0 8.0 0.00 0.00 0.00 100 1012.9
20260905073428 72 102 4.0 8.0 0.00 0.00 0.00 100 1012.7
20260905073000 72 93 4.0 7.0 0.00 0.00 0.00 100 1012.8
20260905072428 72 90 4.0 7.0 0.00 0.00 0.00 100 1012.7
20260905072308 72 90 4.0 7.0 0.00 0.00 0.00 100 1012.7
20260905071427 71 99 4.0 7.0 0.00 0.00 0.00 100 1012.9
20260905070901 71 61 2.0 5.0 0.00 0.00 0.00 100 1012.9
20260905070427 71 61 1.0 5.0 0.00 0.00 0.00 100 1013.1
20260905070205 71 61 1.0 5.0 0.00 0.00 0.00 100 1013.1
20260905065459 71 101 1.0 4.0 0.00 0.00 0.00 100 1013.3
20260905065427 71 101 1.0 4.0 0.00 0.00 0.00 100 1013.3
20260905064800 71 101 1.0 4.0 0.00 0.00 0.00 100 1013.3
20260905064429 70 101 1.0 3.0 0.00 0.00 0.00 100 1013.3
20260905064104 70 101 1.0 3.0 0.00 0.00 0.00 100 1013.3
20260905063429 71 101 1.0 2.0 0.00 0.00 0.00 100 1013.4
20260905063401 71 101 1.0 2.0 0.00 0.00 0.00 100 1013.4
20260905062703 71 101 0.0 2.0 0.00 0.00 0.00 100 1013.4
20260905062429 71 101 0.0 2.0 0.00 0.00 0.00 100 1013.3
20260905062006 71 101 0.0 2.0 0.00 0.00 0.00 100 1013.1
20260905061427 71 101 0.0 2.0 0.00 0.00 0.00 100 1013.3
20260905061259 71 101 0.0 2.0 0.00 0.00 0.00 100 1013.3
20260905060559 71 101 1.0 4.0 0.00 0.00 0.00 100 1013.2
20260905060427 71 101 1.0 4.0 0.00 0.00 0.00 100 1013.2
20260905055900 71 101 2.0 4.0 0.00 0.00 0.00 100 1013.2
20260905055429 71 101 0.0 0.0 0.00 0.00 0.00 100 1013.2
20260905055202 71 101 0.0 0.0 0.00 0.00 0.00 100 1013.2
20260905054501 71 101 0.0 0.0 0.00 0.00 0.00 100 1013.2
20260905054429 71 101 0.0 0.0 0.00 0.00 0.00 100 1013.2
20260905053803 71 101 0.0 0.0 0.00 0.00 0.00 100 1013.2
20260905053429 71 101 0.0 0.0 0.00 0.00 0.00 100 1013.1
20260905053100 71 101 0.0 0.0 0.00 0.00 0.00 100 1013.1
20260905052428 71 101 0.0 0.0 0.00 0.00 0.00 100 1013.0
20260905052402 71 101 0.0 0.0 0.00 0.00 0.00 100 1013.0
20260905051700 72 101 0.0 0.0 0.00 0.00 0.00 100 1012.9
20260905051428 72 101 0.0 0.0 0.00 0.00 0.00 99 1012.8
20260905050959 72 101 0.0 0.0 0.00 0.00 0.00 99 1012.8
20260905050428 72 101 0.0 0.0 0.00 0.00 0.00 99 1013.0
20260905050306 72 101 0.0 0.0 0.00 0.00 0.00 99 1013.0
20260905045603 72 101 0.0 1.0 0.00 0.00 0.00 99 1012.8
20260905045428 72 101 0.0 4.0 0.00 0.00 0.00 98 1012.9
20260905044901 73 101 1.0 4.0 0.00 0.00 0.00 98 1012.8
20260905044428 73 101 1.0 3.0 0.00 0.00 0.00 98 1012.7
20260905044200 73 101 1.0 3.0 0.00 0.00 0.00 98 1012.7
20260905043500 73 101 0.0 1.0 0.00 0.00 0.00 98 1012.7
20260905043428 73 101 0.0 1.0 0.00 0.00 0.00 98 1012.7
20260905042806 73 101 0.0 2.0 0.00 0.00 0.00 97 1012.7
20260905042427 73 101 1.0 2.0 0.00 0.00 0.00 97 1012.7
20260905042103 73 101 1.0 2.0 0.00 0.00 0.00 97 1012.7
20260905041427 73 101 1.0 4.0 0.00 0.00 0.00 97 1012.7
20260905041359 73 101 1.0 4.0 0.00 0.00 0.00 97 1012.7
20260905040659 73 101 1.0 4.0 0.00 0.00 0.00 97 1012.7
20260905040429 73 101 3.0 5.0 0.00 0.00 0.00 96 1012.8
20260905040002 73 101 3.0 7.0 0.00 0.00 0.00 96 1012.8
20260905035429 74 101 3.0 7.0 0.00 0.00 0.00 96 1012.8
20260905035300 74 101 3.0 7.0 0.00 0.00 0.00 96 1012.8
20260905034429 74 97 3.0 6.0 0.00 0.00 0.00 96 1012.9
20260905033905 74 102 3.0 6.0 0.00 0.00 0.00 96 1013.0
20260905033428 74 102 2.0 7.0 0.00 0.00 0.00 96 1012.9
20260905033206 74 102 2.0 7.0 0.00 0.00 0.00 96 1012.9
20260905032506 74 101 3.0 6.0 0.00 0.00 0.00 95 1012.9
20260905032427 74 101 3.0 6.0 0.00 0.00 0.00 95 1012.9
20260905031759 74 87 2.0 5.0 0.00 0.00 0.00 95 1012.8
20260905031427 74 87 2.0 5.0 0.00 0.00 0.00 95 1012.8
20260905031101 74 87 2.0 5.0 0.00 0.00 0.00 95 1012.8
20260905030429 75 98 2.0 5.0 0.00 0.00 0.00 94 1012.7
20260905030400 75 98 2.0 5.0 0.00 0.00 0.00 94 1012.7
20260905025428 75 103 4.0 8.0 0.00 0.00 0.00 94 1012.5
20260905025000 75 96 4.0 8.0 0.00 0.00 0.00 93 1012.5
20260905024428 75 89 1.0 4.0 0.00 0.00 0.00 92 1012.6
20260905024303 75 89 1.0 4.0 0.00 0.00 0.00 92 1012.6
20260905023601 75 89 1.0 4.0 0.00 0.00 0.00 92 1012.5
20260905023428 76 74 2.0 5.0 0.00 0.00 0.00 92 1012.5
20260905022900 76 47 2.0 5.0 0.00 0.00 0.00 91 1012.4
20260905022428 76 81 2.0 5.0 0.00 0.00 0.00 90 1012.3
20260905022203 76 81 2.0 5.0 0.00 0.00 0.00 90 1012.3
20260905021506 76 44 1.0 5.0 0.00 0.00 0.00 89 1012.2
20260905021428 76 44 1.0 5.0 0.00 0.00 0.00 89 1012.2
20260905020803 77 134 2.0 5.0 0.00 0.00 0.00 88 1012.2
20260905020427 77 48 1.0 3.0 0.00 0.00 0.00 87 1012.1
20260905020059 77 48 1.0 3.0 0.00 0.00 0.00 87 1012.1
20260905015427 78 48 1.0 6.0 0.00 0.00 0.00 86 1012.0
20260905015402 78 48 1.0 6.0 0.00 0.00 0.00 86 1012.0
20260905014703 78 53 3.0 6.0 0.00 0.00 0.00 85 1011.8
20260905014427 79 69 2.0 6.0 0.00 0.00 0.00 84 1011.8
20260905013959 79 115 2.0 7.0 0.00 0.00 0.00 83 1011.8
20260905013429 79 115 3.0 8.0 0.00 0.00 0.00 83 1011.7
20260905013301 79 115 3.0 8.0 0.00 0.00 0.00 83 1011.7
20260905012606 80 100 3.0 8.0 0.00 0.00 0.00 82 1011.6
20260905012429 80 113 3.0 7.0 0.00 0.00 0.00 81 1011.6
20260905011900 80 106 2.0 9.0 0.00 0.00 0.00 81 1011.6
20260905011428 81 94 3.0 9.0 0.00 0.00 0.00 80 1011.6
20260905011203 81 94 3.0 9.0 0.00 0.00 0.00 80 1011.6
20260905010459 81 90 5.0 9.0 0.00 0.00 0.00 79 1011.4
20260905010428 81 90 5.0 9.0 0.00 0.00 0.00 79 1011.4
20260905005759 82 95 6.0 9.0 0.00 0.00 0.00 78 1011.5
20260905005428 82 98 6.0 9.0 0.00 0.00 0.00 77 1011.4
20260905005109 82 98 6.0 9.0 0.00 0.00 0.00 77 1011.4
20260905004428 83 92 5.0 8.0 0.00 0.00 0.00 76 1011.4
20260905004402 83 92 5.0 8.0 0.00 0.00 0.00 76 1011.4
20260905003702 83 90 5.0 10.0 0.00 0.00 0.00 75 1011.5
20260905003428 83 100 4.0 10.0 0.00 0.00 0.00 74 1011.5
20260905002959 83 91 5.0 8.0 0.00 0.00 0.00 73 1011.3
20260905002428 84 94 5.0 9.0 0.00 0.00 0.00 72 1011.3
20260905002301 84 94 5.0 9.0 0.00 0.00 0.00 72 1011.3
20260905001603 84 89 5.0 9.0 0.00 0.00 0.00 71 1011.3
20260905001427 84 100 5.0 8.0 0.00 0.00 0.00 70 1011.2
20260905000858 85 100 4.0 9.0 0.00 0.00 0.00 69 1011.2
20260905000428 85 95 5.0 10.0 0.00 0.00 0.00 68 1011.1
20260905000204 85 95 5.0 10.0 0.00 0.00 0.00 68 1011.1
20260904235501 85 92 5.0 9.0 0.00 0.00 0.00 67 1011.2
20260904235429 85 92 5.0 9.0 0.00 0.00 0.00 67 1011.2
20260904234801 86 98 6.0 10.0 0.00 0.00 0.00 65 1011.2
20260904234429 86 92 6.0 10.0 0.00 0.00 0.00 64 1011.3
20260904234104 86 92 6.0 10.0 0.00 0.00 0.00 64 1011.3
20260904233429 86 104 6.0 10.0 0.00 0.00 0.00 64 1011.4
20260904233400 86 104 6.0 10.0 0.00 0.00 0.00 64 1011.4
20260904232701 86 85 6.0 11.0 0.00 0.00 0.00 63 1011.3
20260904232428 86 92 6.0 12.0 0.00 0.00 0.00 64 1011.3
20260904232000 87 105 7.0 12.0 0.00 0.00 0.00 63 1011.2
20260904231428 87 100 6.0 11.0 0.00 0.00 0.00 62 1011.1
20260904231300 87 100 6.0 11.0 0.00 0.00 0.00 62 1011.1
20260904230607 87 88 5.0 12.0 0.00 0.00 0.00 61 1011.2
20260904230428 87 97 7.0 12.0 0.00 0.00 0.00 60 1011.0
20260904225859 87 100 6.0 11.0 0.00 0.00 0.00 61 1011.1
20260904225428 88 95 6.0 9.0 0.00 0.00 0.00 61 1011.2
20260904224500 88 81 5.0 13.0 0.00 0.00 0.00 59 1011.2
20260904224428 88 81 5.0 13.0 0.00 0.00 0.00 59 1011.2
20260904223800 88 94 7.0 13.0 0.00 0.00 0.00 59 1011.1
20260904223429 88 95 8.0 12.0 0.00 0.00 0.00 58 1011.2
20260904223101 88 95 8.0 12.0 0.00 0.00 0.00 58 1011.2
20260904222429 88 98 8.0 11.0 0.00 0.00 0.00 57 1011.3
20260904222403 88 98 8.0 11.0 0.00 0.00 0.00 57 1011.3
20260904221700 89 99 7.0 12.0 0.00 0.00 0.00 56 1011.4
20260904221428 89 96 8.0 12.0 0.00 0.00 0.00 56 1011.4
20260904221001 89 79 4.0 12.0 0.00 0.00 0.00 56 1011.5
20260904220428 89 87 5.0 10.0 0.00 0.00 0.00 56 1011.4
20260904220304 89 87 5.0 10.0 0.00 0.00 0.00 56 1011.4
20260904215602 89 96 6.0 10.0 0.00 0.00 0.00 55 1011.4
20260904215428 89 94 5.0 10.0 0.00 0.00 0.00 55 1011.4
20260904214900 89 95 6.0 11.0 0.00 0.00 0.00 55 1011.5
20260904214428 89 94 7.0 11.0 0.00 0.00 0.00 56 1011.5
20260904214159 89 94 7.0 11.0 0.00 0.00 0.00 56 1011.5
20260904213501 89 88 5.0 10.0 0.00 0.00 0.00 55 1011.6
20260904213428 89 88 5.0 10.0 0.00 0.00 0.00 55 1011.6
20260904212759 89 100 7.0 10.0 0.00 0.00 0.00 53 1011.5
20260904212427 90 97 6.0 9.0 0.00 0.00 0.00 53 1011.4
20260904212059 90 97 6.0 9.0 0.00 0.00 0.00 53 1011.4
20260904211427 90 97 6.0 10.0 0.00 0.00 0.00 52 1011.4
20260904211403 90 97 6.0 10.0 0.00 0.00 0.00 52 1011.4
20260904210659 90 83 5.0 9.0 0.00 0.00 0.00 52 1011.6
20260904210427 90 95 5.0 10.0 0.00 0.00 0.00 51 1011.5
20260904205959 90 76 5.0 10.0 0.00 0.00 0.00 51 1011.5
20260904205429 90 68 4.0 8.0 0.00 0.00 0.00 51 1011.6
20260904205306 90 68 4.0 8.0 0.00 0.00 0.00 51 1011.6
20260904204602 90 92 4.0 8.0 0.00 0.00 0.00 50 1011.6
20260904204429 90 104 5.0 9.0 0.00 0.00 0.00 50 1011.5
20260904203903 90 96 4.0 10.0 0.00 0.00 0.00 50 1011.6
20260904203428 90 102 6.0 10.0 0.00 0.00 0.00 50 1011.5
20260904203201 90 102 6.0 10.0 0.00 0.00 0.00 50 1011.5
20260904202501 90 103 5.0 11.0 0.00 0.00 0.00 46 1011.5
20260904202428 90 103 5.0 11.0 0.00 0.00 0.00 46 1011.5
20260904201800 90 97 6.0 11.0 0.00 0.00 0.00 48 1011.5
20260904201428 90 99 6.0 11.0 0.00 0.00 0.00 48 1011.4
20260904201107 90 99 6.0 11.0 0.00 0.00 0.00 48 1011.4
20260904200428 90 101 8.0 11.0 0.00 0.00 0.00 46 1011.5
20260904200401 90 101 8.0 11.0 0.00 0.00 0.00 46 1011.5
20260904195701 90 88 5.0 9.0 0.00 0.00 0.00 48 1011.5
20260904195428 90 104 5.0 9.0 0.00 0.00 0.00 48 1011.5
20260904195001 90 93 4.0 9.0 0.00 0.00 0.00 50 1011.5
20260904194429 90 88 4.0 10.0 0.00 0.00 0.00 49 1011.5
20260904194301 90 88 4.0 10.0 0.00 0.00 0.00 49 1011.5
20260904193605 90 80 5.0 10.0 0.00 0.00 0.00 50 1011.6
20260904193429 90 87 6.0 10.0 0.00 0.00 0.00 50 1011.7
20260904192429 90 93 5.0 10.0 0.00 0.00 0.00 48 1011.6
20260904192201 90 93 5.0 10.0 0.00 0.00 0.00 48 1011.6
20260904191502 90 99 6.0 10.0 0.00 0.00 0.00 48 1011.8
20260904191428 90 99 6.0 10.0 0.00 0.00 0.00 48 1011.8
20260904190801 90 95 5.0 10.0 0.00 0.00 0.00 47 1011.8
20260904190428 90 95 5.0 10.0 0.00 0.00 0.00 48 1011.9
20260904190059 90 95 5.0 10.0 0.00 0.00 0.00 48 1011.9
20260904185428 90 104 5.0 9.0 0.00 0.00 0.00 47 1011.9
20260904185401 90 104 5.0 9.0 0.00 0.00 0.00 47 1011.9
20260904184702 90 97 6.0 11.0 0.00 0.00 0.00 47 1011.8
20260904184428 90 104 7.0 11.0 0.00 0.00 0.00 46 1011.9
20260904183959 90 100 7.0 11.0 0.00 0.00 0.00 46 1011.7
20260904183427 90 88 5.0 11.0 0.00 0.00 0.00 48 1011.9
20260904183300 90 88 5.0 11.0 0.00 0.00 0.00 48 1011.9
20260904182601 90 94 6.0 10.0 0.00 0.00 0.00 48 1011.9
20260904182427 90 99 7.0 10.0 0.00 0.00 0.00 48 1011.8
20260904181902 90 81 5.0 11.0 0.00 0.00 0.00 49 1012.0
20260904181427 90 88 5.0 12.0 0.00 0.00 0.00 48 1011.9
20260904181200 90 88 5.0 12.0 0.00 0.00 0.00 48 1011.9
20260904180503 90 89 7.0 11.0 0.00 0.00 0.00 48 1011.7
20260904180429 90 89 7.0 11.0 0.00 0.00 0.00 48 1011.7
20260904175802 90 99 6.0 11.0 0.00 0.00 0.00 47 1011.8
20260904175429 90 94 6.0 10.0 0.00 0.00 0.00 48 1011.8
20260904175102 90 94 6.0 10.0 0.00 0.00 0.00 48 1011.8
20260904174429 90 82 6.0 10.0 0.00 0.00 0.00 50 1011.7
20260904174400 90 82 6.0 10.0 0.00 0.00 0.00 50 1011.7
20260904173700 89 97 6.0 10.0 0.00 0.00 0.00 50 1011.7
20260904173428 89 96 5.0 11.0 0.00 0.00 0.00 52 1011.7
20260904173003 89 94 6.0 11.0 0.00 0.00 0.00 54 1011.7
20260904172428 89 76 6.0 11.0 0.00 0.00 0.00 55 1011.6
20260904172305 89 76 6.0 11.0 0.00 0.00 0.00 55 1011.6
20260904171600 89 93 4.0 11.0 0.00 0.00 0.00 57 1011.5
20260904171428 88 82 4.0 9.0 0.00 0.00 0.00 58 1011.5
20260904170900 88 100 4.0 11.0 0.00 0.00 0.00 59 1011.5
20260904170428 88 91 5.0 11.0 0.00 0.00 0.00 60 1011.5
20260904170200 88 91 5.0 11.0 0.00 0.00 0.00 60 1011.5
20260904165459 87 84 4.0 9.0 0.00 0.00 0.00 59 1011.3
20260904165428 87 84 4.0 9.0 0.00 0.00 0.00 59 1011.3
20260904164427 86 97 7.0 10.0 0.00 0.00 0.00 63 1011.3
20260904164105 86 97 7.0 10.0 0.00 0.00 0.00 63 1011.3
20260904163428 85 57 3.0 6.0 0.00 0.00 0.00 66 1011.4
20260904163400 85 57 3.0 6.0 0.00 0.00 0.00 66 1011.4
20260904162700 85 72 3.0 6.0 0.00 0.00 0.00 67 1011.3
20260904162428 84 76 4.0 6.0 0.00 0.00 0.00 68 1011.3
20260904162007 84 82 3.0 6.0 0.00 0.00 0.00 73 1011.3
20260904161428 83 56 3.0 7.0 0.00 0.00 0.00 79 1011.3
20260904161301 83 56 3.0 7.0 0.00 0.00 0.00 79 1011.3
20260904160428 82 71 3.0 7.0 0.00 0.00 0.00 82 1011.3
20260904155902 82 59 3.0 6.0 0.00 0.00 0.00 83 1011.3
20260904155427 81 67 1.0 5.0 0.00 0.00 0.00 84 1011.3
20260904155201 81 67 1.0 5.0 0.00 0.00 0.00 84 1011.3
20260904154500 80 85 3.0 5.0 0.00 0.00 0.00 86 1011.2
20260904154427 80 85 3.0 5.0 0.00 0.00 0.00 86 1011.2
20260904153801 80 63 2.0 4.0 0.00 0.00 0.00 88 1011.3
20260904153427 79 55 1.0 4.0 0.00 0.00 0.00 89 1011.3
20260904153101 79 55 1.0 4.0 0.00 0.00 0.00 89 1011.3
20260904152429 78 57 0.0 3.0 0.00 0.00 0.00 90 1011.2
20260904152403 78 57 0.0 3.0 0.00 0.00 0.00 90 1011.2
20260904151428 78 57 3.0 5.0 0.00 0.00 0.00 90 1011.1
20260904150428 77 112 2.0 4.0 0.00 0.00 0.00 93 1011.1
20260904150311 77 112 2.0 4.0 0.00 0.00 0.00 93 1011.1
20260904145602 76 112 2.0 3.0 0.00 0.00 0.00 93 1011.1
20260904145428 76 112 0.0 3.0 0.00 0.00 0.00 95 1011.1
20260904144902 76 112 0.0 3.0 0.00 0.00 0.00 95 1011.1
20260904144428 75 112 0.0 2.0 0.00 0.00 0.00 95 1010.9
20260904144201 75 112 0.0 2.0 0.00 0.00 0.00 95 1010.9
20260904143503 75 112 0.0 3.0 0.00 0.00 0.00 97 1010.9
20260904143428 75 112 0.0 3.0 0.00 0.00 0.00 97 1010.9
20260904142800 75 112 1.0 3.0 0.00 0.00 0.00 97 1010.8
20260904142427 74 112 0.0 3.0 0.00 0.00 0.00 98 1010.7
20260904142059 74 112 0.0 3.0 0.00 0.00 0.00 98 1010.7
20260904141427 73 112 0.0 1.0 0.00 0.00 0.00 100 1010.9
20260904141401 73 112 0.0 1.0 0.00 0.00 0.00 100 1010.9
20260904140700 73 112 0.0 1.0 0.00 0.00 0.00 100 1010.9
20260904140429 72 112 0.0 0.0 0.00 0.00 0.00 100 1010.9
20260904140005 72 112 0.0 1.0 0.00 0.00 0.00 100 1010.9
20260904135429 72 112 0.0 1.0 0.00 0.00 0.00 100 1010.9
20260904135306 72 112 0.0 1.0 0.00 0.00 0.00 100 1010.9
20260904134428 71 112 0.0 1.0 0.00 0.00 0.00 100 1010.7
20260904133900 71 112 0.0 0.0 0.00 0.00 0.00 100 1010.7
20260904133428 71 112 0.0 0.0 0.00 0.00 0.00 100 1010.8
20260904133200 71 112 0.0 0.0 0.00 0.00 0.00 100 1010.8
20260904132428 70 112 0.0 1.0 0.00 0.00 0.00 100 1010.7
20260904131800 70 112 0.0 1.0 0.00 0.00 0.00 100 1010.6
20260904131428 69 112 0.0 1.0 0.00 0.00 0.00 100 1010.6
20260904131101 69 112 0.0 1.0 0.00 0.00 0.00 100 1010.6
20260904130428 68 112 0.0 1.0 0.00 0.00 0.00 100 1010.5
20260904130403 68 112 0.0 1.0 0.00 0.00 0.00 100 1010.5
20260904125659 68 112 0.0 0.0 0.00 0.00 0.00 100 1010.4
20260904125428 67 112 0.0 0.0 0.00 0.00 0.00 100 1010.5
20260904125001 67 112 0.0 0.0 0.00 0.00 0.00 100 1010.3
20260904124427 66 112 0.0 0.0 0.00 0.00 0.00 100 1010.3
20260904124301 66 112 0.0 0.0 0.00 0.00 0.00 100 1010.3
20260904123559 66 112 0.0 0.0 0.00 0.00 0.00 100 1010.3
20260904123428 66 112 0.0 0.0 0.00 0.00 0.00 100 1010.2
20260904122900 66 112 0.0 0.0 0.00 0.00 0.00 100 1010.2
20260904122428 66 112 0.0 0.0 0.00 0.00 0.00 100 1010.1
20260904122159 66 112 0.0 0.0 0.00 0.00 0.00 100 1010.1
20260904121504 66 112 0.0 0.0 0.00 0.00 0.00 100 1010.1
20260904121428 66 112 0.0 0.0 0.00 0.00 0.00 100 1010.1
20260904120800 66 112 0.0 0.0 0.00 0.00 0.00 100 1010.1
20260904120428 66 112 0.0 0.0 0.00 0.00 0.00 100 1010.1
20260904120059 66 112 0.0 0.0 0.00 0.00 0.00 100 1010.1
20260904115427 66 112 0.0 0.0 0.00 0.00 0.00 100 1009.9
20260904115359 66 112 0.0 0.0 0.00 0.00 0.00 100 1009.9
20260904114428 67 112 0.0 1.0 0.00 0.00 0.00 100 1009.8
20260904114003 67 112 0.0 1.0 0.00 0.00 0.00 100 1009.9
20260904113428 67 112 0.0 1.0 0.00 0.00 0.00 100 1009.9